Regional Weather Roundup
Issued by NWS

Home | Current Version | Previous Version | Text Only | Print | Product List | Glossary On
Versions: 1 2 3 4 5 6 7 8 9 10 11 12 13 14 15 16 17 18 19 20 21 22 23 24 25 26 27 28 29 30 31 32 33 34 35 36 37 38 39 40 41 42 43 44 45 46 47 48 49 50
000
ASUS43 KFSD 172010
RWRSD

WEATHER ROUNDUP FOR SOUTH DAKOTA
NATIONAL WEATHER SERVICE SIOUX FALLS SD
200 PM CST WED JAN 17 2018

NOTE: "FAIR" INDICATES FEW OR NO CLOUDS BELOW 12,000 FEET WITH NO
SIGNIFICANT WEATHER AND/OR OBSTRUCTIONS TO VISIBILITY.


SDZ001>005-009-010-012>017-172100-
NORTHWEST AND NORTH CENTRAL SOUTH DAKOTA

CITY           SKY/WX    TMP DP  RH WIND       PRES   REMARKS
BUFFALO          N/A     34  24  67 W13       30.12F WCI  25
FAITH            N/A     38  25  59 W14       30.17F
MOBRIDGE       SUNNY     41  24  51 NW9       30.10F
$$

SDZ012>016-024>037-041>051-057-063-072>074-172100-
SOUTHWEST AND SOUTH CENTRAL SOUTH DAKOTA

CITY           SKY/WX    TMP DP  RH WIND       PRES   REMARKS
RAPID CTY ARPT SUNNY     45  29  53 N12       30.22F
PIERRE         SUNNY     41  22  46 W15       30.18F
CUSTER         SUNNY     47   1  15 S5        30.19F
ELLSWORTH AFB  SUNNY     43  26  51 N14       30.20F
PHILIP         SUNNY     45  28  51 W13       30.22F
PINE RIDGE     SUNNY     39  19  44 SW9       30.26F
SPEARFISH        N/A     43  21  42 NW8       30.22F
WINNER         FAIR      39  20  46 W10       30.21F
$$

SDZ004>011-016>023-039-040-172100-
NORTHEAST SOUTH DAKOTA

CITY           SKY/WX    TMP DP  RH WIND       PRES   REMARKS
ABERDEEN       SUNNY     40  22  48 SW13      30.11F
WATERTOWN      SUNNY     29  15  56 SW18      30.10F WCI  16
BROOKINGS      SUNNY     27  15  61 SW13      30.16F WCI  16
SISSETON         N/A     34  18  52 W14       30.04F WCI  25
$$

SDZ017-020-022-023-036>040-048>070-172100-
SOUTHEAST SOUTH DAKOTA

CITY           SKY/WX    TMP DP  RH WIND       PRES   REMARKS
SIOUX FALLS    SUNNY     28  15  58 SW13      30.21F WCI  17
HURON          SUNNY     33  18  53 S9        30.17F WCI  25
CHAMBERLAIN    SUNNY     37  20  51 SW12      30.20F
MITCHELL       SUNNY     32  18  56 SW10      30.22F WCI  24
YANKTON        SUNNY     35  16  45 SW15      30.24F WCI  25
$$

ABBREVIATIONS USED IN REMARKS
   TC - TEMPERATURE IN CELSIUS
  WCI - WIND CHILL INDEX
   HX - HEAT INDEX
  VSB - VISIBILITY




USA.gov is the U.S. government's official web portal to all federal, state and local government web resources and services.